Regional Weather Roundup
Issued by NWS

Home | Current Version | Previous Version | Text Only | Print | Product List | Glossary Off
Versions: 1 2 3 4 5 6 7 8 9 10 11 12 13 14 15 16 17 18 19 20 21 22 23 24 25 26 27 28 29 30 31 32 33 34 35 36 37 38 39 40 41 42 43 44 45 46 47 48 49 50

000
ASUS43 KBIS 171420
RWRND

NORTH DAKOTA REGIONAL WEATHER ROUNDUP
NATIONAL WEATHER SERVICE BISMARCK ND
900 AM CDT WED SEP 17 2014

NOTE: "FAIR" INDICATES FEW OR NO CLOUDS BELOW 12,000 FEET WITH NO
SIGNIFICANT WEATHER AND/OR OBSTRUCTIONS TO VISIBILITY.


NDZ001>003-009>011-017-171500-
NORTHWEST NORTH DAKOTA

CITY           SKY/WX    TMP DP  RH WIND       PRES   REMARKS
WILLISTON      MOSUNNY   47  39  74 CALM      29.96S HAZE
MINOT          SUNNY     50  43  77 NE3       29.97R
MINOT AFB      SUNNY     49  46  91 SE7       29.96S
$$

NDZ018>021-031>035-040>046-171500-
SOUTHWEST NORTH DAKOTA

CITY           SKY/WX    TMP DP  RH WIND       PRES   REMARKS
BISMARCK       SUNNY     48  43  82 CALM      29.97R
DICKINSON      PTSUNNY   49  45  86 CALM      29.95S
GARRISON         N/A     50  46  86 CALM      29.96R
HETTINGER ARPT MOSUNNY   45  42  89 CALM      29.98R
$$

NDZ004>008-012>016-024-026-027-054-171500-
NORTHEAST NORTH DAKOTA

CITY           SKY/WX    TMP DP  RH WIND       PRES   REMARKS
GRAND FORKS    MOSUNNY   50  46  86 N12       29.96R
GRND FRKS AFB  SUNNY     50  49  99 N10       29.97R
DEVILS LAKE    SUNNY     50  43  76 NE10      29.96S
$$

NDZ022-023-025-028>030-036>039-047>053-171500-
SOUTHEAST NORTH DAKOTA

CITY           SKY/WX    TMP DP  RH WIND       PRES   REMARKS
FARGO          SUNNY     53  48  83 N5        29.93S
JAMESTOWN      SUNNY     52  47  83 N6        29.95R
$$



USA.gov is the U.S. government's official web portal to all federal, state and local government web resources and services.